www.pogodaiklimat.ru

Погода и климат >> Архив погоды >> Индия >> Ambikapur


ПОГОДА в Ambikapur

  • Прогноз погоды в Ambikapur
  • Монитор погоды в Ambikapur
  • Климат города

АРХИВ ПОГОДЫ в Ambikapur

Время (UTC), дата Ветер
(напр.,м/с)
 
Видим.   Явления Облачность Т
(С)
Тd
(С)
f
(%)
Тe
(С)
Тes
(С)
Комфортность P
(гПа)
Po
(гПа)
Тmin
(С)
Tmax
(С)
R
(мм)
R24
(мм)
S
(см)
15 14.10 штиль 0 4000 м ясно +23.6 +18.7 74 +28 +28 душно 1012.5 944.7
18 14.10 штиль 0 4000 м ясно +21.0 +18.5 86 +25 +25 комфорт 1013.2 944.7
21 14.10 штиль 0 4000 м ясно +19.2 +17.6 90 +21 +21 комфорт 1013.3 944.6
00 15.10 штиль 0 4000 м ясно +18.0 +17.0 94 +18 +18 1014.5 945.1
03 15.10 штиль 0 4000 м мгла ясно +22.4 +17.4 73 +27 +34 душно 1015.6 947.3 +17.0
06 15.10 штиль 0 4000 м 1/1 750 м
[Sc]
+26.4 +17.9 60 +31 +49 душно 1014.4 947.1
09 15.10 С 1 4000 м ясно +29.4 +10.5 31 +30 +40 жарко 1010.8 944.4
12 15.10 С 1 4000 м 3/3 750 м
[Sc]
+28.0 +14.2 43 +30 +30 жарко 1010.9 944.1 +29.8
15 15.10 штиль 0 4000 м ясно +22.6 +14.8 61 +26 +26 жарко 1014.3 946.2
18 15.10 штиль 0 4000 м ясно +19.6 +15.4 77 +21 +21 комфорт 1015.2 946.3
21 15.10 штиль 0 4000 м ясно +18.0 +15.0 83 +18 +18 1014.2 945.0
00 16.10 штиль 0 4000 м ясно +16.8 +14.5 86 +17 +17 1014.8 945.2
03 16.10 штиль 0 2000 м мгла ясно +20.0 +14.8 72 +22 +29 комфорт 1016.3 947.3 +15.2
06 16.10 ЮЗ 1 4000 м ясно +25.6 +13.1 46 +28 +45 жарко 1015.1 947.5
09 16.10 С 1 4000 м ясно +30.0 +9.0 27 +29 +40 жарко 1010.7 944.3
12 16.10 штиль 0 4000 м ясно +28.0 +16.2 49 +31 +31 душно 1010.8 944.0 +30.1
15 16.10 штиль 0 4000 м ясно +22.6 +15.9 66 +27 +27 душно 1013.7 945.6
18 16.10 штиль 0 4000 м ясно +19.8 +16.3 80 +22 +22 комфорт 1014.8 945.9
21 16.10 штиль 0 4000 м ясно +18.2 +15.6 85 +18 +18 1013.6 944.6
00 17.10 штиль 0 4000 м ясно +17.0 +15.0 88 +17 +17 1014.3 944.8
03 17.10 штиль 0 2000 м мгла ясно +22.8 +16.8 69 +28 +34 душно 1014.5 946.4 +16.4
06 17.10 З 1 4000 м ясно +28.8 +17.5 50 +33 +50 очень
душно
1012.2 945.5
09 17.10 ЮЗ 1 4000 м 3/3 900 м
[Cu med, cong]
+30.4 +14.6 38 +32 +40 жарко 1008.3 942.3
12 17.10 штиль 0 4000 м 5/1 750 м
[Sc Ci fib]
+27.8 +17.4 53 +32 +32 душно 1008.9 942.2 +30.5
15 17.10 штиль 0 4000 м ясно +24.0 +15.4 59 +27 +27 жарко 1011.3 943.5
18 17.10 штиль 0 4000 м 4/0
[Ac trans]
+22.4 +15.3 64 +26 +26 жарко 1011.9 943.9
21 17.10 штиль 0 4000 м ясно +19.8 +14.9 73 +22 +22 комфорт 1011.8 943.1
03 18.10 штиль 0 2000 м мгла 4/3 750 м
[Sc Ac trans]
+22.8 +18.8 78 +29 +33 очень
душно
1013.7 945.6 +17.6
06 18.10 штиль 0 4000 м 5/3 750 м
[Sc Ac trans]
+27.2 +19.8 64 +33 +45 очень
душно
1012.3 945.3
09 18.10 З 1 4000 м 8/4 750 м
[Sc Ac trans]
+30.4 +14.6 38 +32 +36 жарко 1008.7 942.7
12 18.10 С 1 4000 м 8/4 750 м
[Sc Ac trans]
+28.4 +17.0 50 +32 +32 душно 1009.0 942.5 +31.2
15 18.10 штиль 0 4000 м 3/0
[Ac trans]
+25.0 +19.0 69 +30 +30 душно 1011.9 944.4
18 18.10 штиль 0 4000 м ясно +22.4 +18.4 78 +28 +28 душно 1012.3 944.3
21 18.10 штиль 0 4000 м ясно +20.2 +17.7 86 +23 +23 комфорт 1011.9 943.4
00 19.10 штиль 0 4000 м ясно +19.4 +17.5 89 +21 +21 комфорт 1012.7 944.0
03 19.10 штиль 0 4000 м мгла ясно +23.2 +19.0 77 +29 +36 душно 1013.9 946.0 +18.3
06 19.10 штиль 0 4000 м ясно +28.0 +17.9 54 1012.9 945.3
09 19.10 С 1 4000 м 3/3 750 м
[Sc]
+30.8 +13.5 35 +32 +39 жарко 1010.2 944.0
12 19.10 СЗ 1 4000 м ясно +28.8 +15.7 45 +32 +32 душно 1010.7 944.1 +31.2
15 19.10 штиль 0 4000 м ясно +25.4 +18.4 65 +30 +30 душно 1012.6 945.2
18 19.10 штиль 0 4000 м ясно +22.8 +18.5 77 +29 +29 очень
душно
1013.6 945.5
21 19.10 штиль 0 4000 м ясно +20.6 +17.1 80 +24 +24 комфорт 1013.0 944.5
00 20.10 штиль 0 4000 м ясно +19.7 +17.1 85 +22 +22 комфорт 1014.1 945.2
03 20.10 штиль 0 2000 м мгла ясно +22.4 +17.8 75 +27 +34 душно 1016.1 947.8 +17.9
06 20.10 С 1 4000 м ясно +28.0 +18.7 57 +33 +50 очень
душно
1015.2 948.1
09 20.10 СВ 1 4000 м ясно +30.6 +10.5 29 +31 +41 жарко 1011.4 945.1
12 20.10 штиль 0 4000 м ясно +28.6 +15.8 46 +32 +32 душно 1011.9 945.2 +30.9
15 20.10 штиль 0 4000 м ясно +24.0 +15.4 59 +27 +27 жарко 1014.7 946.8
18 20.10 штиль 0 4000 м ясно +22.4 +16.4 69 +27 +27 душно 1014.8 946.7
21 20.10 штиль 0 4000 м ясно +20.2 +16.0 77 +23 +23 комфорт 1014.3 945.7
00 21.10 штиль 0 4000 м ясно +19.4 +15.9 80 +21 +21 комфорт 1014.8 945.9
03 21.10 штиль 0 4000 м мгла ясно +23.0 +16.7 68 +28 +34 душно 1016.5 948.2
06 21.10 штиль 0 4000 м ясно +29.2 +14.6 41 +31 +51 опасность
солнечного
удара
1014.0 947.3
09 21.10 штиль 0 4000 м 3/3 750 м
[Sc]
+30.0 +15.3 41 +33 +41 душно 1011.4 945.0

 

Местоположение метеостанции Ambikapur (Chhattisgarh, Индия): широта 23.17 долгота 83.25 высота над уровнем моря 611 м.

В архиве по умолчанию представлена погода в Ambikapur за последнюю неделю. Архивные данные за месяц целиком и за предыдущие месяцы, начиная с января 2011 года, Вы можете получить, выбрав интересующий диапазон дат из раскрывающегося списка и нажав кнопку "Ввод!".


*Определитесь, кто Вы:
робот инопланетянин человек

Внимание! Время в таблицах - всемирное. Для получения местного времени необходимо прибавить поправку, которая в Ambikapur равна 5.5 ч.

Смотрите также архив погоды в соседних городах и на ближайших метеорологических станциях:

Погода в Daltonganj (Jharkhand, Индия) (129 км)
Погода в Sundargarh (Orissa, Индия) (142 км)
Погода в Pendra Road (Chhattisgarh, Индия) (145 км)
Погода в Bilaspur (Chhattisgarh, Индия) (163 км)
Погода в Jharsuguda (Orissa, Индия) (163 км)
Погода в Hirakud (Orissa, Индия) (194 км)
Погода в Raipur Airport (Chhattisgarh, Индия) (195 км)
Погода в Sidhi (Madhya Pradesh, Индия) (198 км)
Погода в Sambalpur (Orissa, Индия) (203 км)
Погода в Ranchi (Jharkhand, Индия) (212 км)

Пояснения к столбцам:

Ветер - указаны скорость ветра в м/с - средняя за 10 мин, порывы в срок и между сроками (в фигурных скобках) и направление, откуда дует ветер: С - северный, СВ - северо-восточный, В - восточный, ЮВ - юго-восточный, Ю - южный, ЮЗ - юго-западный, З - западный, СЗ - северо-западный.
Видимость - горизонтальная дальность видимости в метрах или километрах. При видимости от 1 до 10 км при отсутствии осадков обычно наблюдается дымка, при ухудшении видимости до 1 км и менее - туман. В сухую погоду видимость может ухудшаться дымом, пылью или мглою.
Явления - указаны атмосферные явления, наблюдавшиеся в срок или в последний час перед сроком; фигурными скобками обозначены явления, наблюдавшиеся между сроками (за 1-3 часа до срока); квадратными скобками обозначены град или гололедные отложения с указанием их диаметра в мм.
Облачность - указаны через наклонную черту общая и нижняя облачность в баллах и высота нижней границы облаков в метрах; квадратными скобками обозначены формы облаков: Ci - перистые, Cs - перисто-слоистые, Cc - перисто-кучевые, Ac - высококучевые, As - высокослоистые, Sc - слоисто-кучевые, Ns - слоисто-дождевые, Cu - кучевые, Cb - кучево-дождевые. Подробнее классификацию облаков см. в Атласе облаков (PDF).
T - Температура воздуха - температура, измеренная на высоте 2 м над землей.
Td - Температура точки росы - температура, при понижении до которой содержащийся в воздухе водяной пар достигнет насыщения.
f - Относительная влажность воздуха - влажноcть воздуха, измеренная на высоте 2 м над землей.
Te - Эффективная температура - температура, которую ощущает одетый по сезону человек в тени. Характеристика душности погоды. При расчете учитывается влияние влажности воздуха и скорости ветра на теплоощущения человека.
Tes - Эффективная температура на солнце - температура, которую ощущает человек, с поправкой на солнечный нагрев. Характеристика знойности погоды. Зависит от высоты солнца над горизонтом, облачности и скорости ветра. Ночью, в пасмурную погоду, а также при ветре 12 м/с и более поправка равна нулю.
P - Атмосферное давление - приведенное к уровню моря атмосферное давление.
Po - Атмосферное давление - измеренное на уровне метеостанции атмосферное давление.
Tmin - Минимальная температура - минимум температуры воздуха на высоте 2 м над землей.
Tmax - Максимальная температура - максимум температуры воздуха на высоте 2 м над землей.
R - Количество осадков - Количество выпавших осадков за период времени, мм. При наведении курсора мыши на число - период времени, за который выпало указанное количество осадков.
R24 - Количество осадков - Количество выпавших осадков за 24 часа, мм.
S - Снежный покров - Высота снежного покрова, см. При наведении курсора мыши на число - состояние снежного покрова и степень покрытия местности в баллах.